Location: ????????
(37.6846°N, 24.0673°E)
Time: 14:55:04
(UTC+00:00)

MOZ.5/SAFIR/RUBIN 5/SL-8 - Pass Details

Date: 14 July 2020
Orbit: 678 x 705 km, 98.1° (Epoch: 04 August)

Event Time Altitude Azimuth Distance (km) Brightness Sun altitude
Exits shadow 00:25:51 44° 290° (WNW) 968 4.4 -24.7°
Drops below altitude 10° 00:29:43 10° 336° (NNW) 2,178 6.8 -24.3°
Sets 00:32:04 0° 342° (NNW) 3,102 7.7 -24.1°
